Home > Weather > Palikir > Past weeks

Flag for Micronesia Past Weather in Palikir, Pohnpei, Micronesia — Yesterday and Last 2 Weeks

Now
74 °F

Mostly cloudy.


Feels Like: 72 °F
Forecast: 79 / 88 °F
Wind: 3 mph from Southeast

Location: Pohnpei

Current Time: Jul 30, 2016 at 2:59:52 AM

Latest Report: Jul 30, 2016 at 1:55 AM


Visibility: 15 mi

Pressure: 29.81 "Hg

Humidity: 96%

Dew Point: 73 °F

Location of PalikirLocation

Past Weather in Palikir — Graph

°F

Palikir Temperature Yesterday

Maximum temperature yesterday: 88 °F (at 11:50 AM)
Minimum temperature yesterday: 75 °F (at 4:53 AM)
Average temperature yesterday: 79 °F

High & Low Weather Summary for the Past Weeks

 TemperatureHumidityPressure
High90 °F (Jul 15, 11:55 AM)99% (Jul 29, 9:52 PM)29.93 "Hg (Jul 29, 9:52 PM)
Low73 °F (Jul 23, 8:57 AM)62% (Jul 28, 4:50 PM)29.74 "Hg (Jul 23, 3:52 PM)
Average81 °F85%29.83 "Hg
* Reported Jul 15 1:50 AM — Jul 30 1:55 AM, Palikir, Weather by CustomWeather, © 2016

Note: Actual official high and low records may vary slightly from our data, if they occured in-between our weather recording intervals... More about our weather records

Advertising

Palikir Weather History for the Previous 24 Hours

Scroll right to see more
 ConditionsComfort  
Time TempWeatherWind HumidityBarometerVisibility
1:55 AM
Sat, Jul 30
74 °FMostly cloudy.3 mph96%29.81 "Hg15 mi
12:52 AM74 °FMostly cloudy.2 mph96%29.83 "Hg14 mi
11:53 PM
Fri, Jul 29
75 °FMostly cloudy.5 mph95%29.85 "Hg15 mi
10:53 PM75 °FMostly cloudy.3 mph95%29.87 "Hg15 mi
9:52 PM75 °FMostly cloudy.3 mph99%29.86 "Hg15 mi
8:51 PM76 °FSprinkles. Mostly cloudy.3 mph96%29.86 "Hg12 mi
7:50 PM76 °FSprinkles. Mostly cloudy.3 mph96%29.87 "Hg12 mi
6:52 PM76 °FSprinkles. Mostly cloudy.6 mph96%29.86 "Hg12 mi
5:53 PM77 °FSprinkles. Mostly cloudy.7 mph87%29.85 "Hg12 mi
4:52 PM78 °FSprinkles. Mostly cloudy.5 mph95%29.81 "Hg12 mi
3:51 PM82 °FMore clouds than sun.7 mph84%29.80 "Hg15 mi
2:50 PM85 °FSprinkles. Cloudy.3 mph75%29.78 "Hg15 mi
1:50 PM86 °FMostly cloudy.3 mph78%29.81 "Hg15 mi
12:50 PM83 °FMostly cloudy.3 mph82%29.83 "Hg14 mi
11:50 AM88 °FSprinkles. Mostly cloudy.6 mph62%29.85 "Hg8 mi
10:54 AM85 °FMore clouds than sun.6 mph72%29.86 "Hg15 mi
9:50 AM86 °FMore clouds than sun.5 mph73%29.86 "Hg15 mi
8:50 AM85 °FMore clouds than sun.3 mph82%29.86 "Hg15 mi
7:52 AM78 °FBroken clouds.7 mph90%29.87 "Hg15 mi
6:50 AM76 °FScattered clouds.3 mph94%29.84 "Hg15 mi
5:53 AM75 °FPassing clouds.3 mph95%29.83 "Hg15 mi
4:53 AM75 °FPassing clouds.2 mph95%29.83 "Hg15 mi
3:52 AM75 °FPassing clouds.2 mph95%29.82 "Hg15 mi
2:52 AM76 °FOvercast.2 mph94%29.81 "Hg15 mi
Weather by CustomWeather, © 2016

See weather overviewHow to use our weather pages